Zurück zum Katalog

STARLINK-30921

AktivKommunikationVLEO
NORAD 58383·PAYLOAD·🇺🇸 United States

Gestartet Nov 20, 2023 von Vandenberg Space Force Base

Loading…

Nächste Überflüge (nächste 24 Stunden)

TLE

AktuellSource: CelesTrak SupGP

Epoche: Sep 14, 2026, 20:42 UTC

1 58383C 23178K   26257.86298611  .00029923  00000+0  88496-3 0  2570
2 58383  53.1576 198.2595 0001244  95.8016 237.1961 15.34344799    14

Verfolge STARLINK-30921 in Echtzeit mit AllMySat

Download on the App Store